• In Hungary
  • List of Countries
  • For 7 days
  • Water Temperature
  • Satellite Maps
  • Weather Map
  • News
  • Weather Widgets
  • user-avatar
    Login

    Hourly Weather Nikolaevskiy

    Today, 23 October, Tuesday

    Time Temperature Precipitation Wind Pressure Humidity
    00:00 +10°C° 0 mm 3 mps 747 mmHg 78%
    01:00 +10°C° 0.1 mm 3 mps 746 mmHg 78%
    02:00 +10°C° 0.1 mm 3 mps 746 mmHg 79%
    03:00 +10°C° 0.1 mm 3 mps 745 mmHg 79%
    04:00 +10°C° 0.4 mm 4 mps 745 mmHg 82%
    05:00 +10°C° 0.4 mm 4 mps 744 mmHg 85%
    06:00 +8°C° 0.4 mm 4 mps 743 mmHg 88%
    07:00 +10°C° 0.3 mm 4 mps 743 mmHg 88%
    08:00 +9°C° 0.3 mm 5 mps 742 mmHg 88%
    09:00 +9°C° 0.3 mm 5 mps 742 mmHg 88%
    10:00 +9°C° 0.4 mm 5 mps 742 mmHg 86%
    11:00 +9°C° 0.4 mm 5 mps 741 mmHg 85%
    12:00 +9°C° 0.4 mm 5 mps 741 mmHg 84%
    13:00 +9°C° 0.2 mm 5 mps 741 mmHg 78%
    14:00 +10°C° 0.2 mm 4 mps 740 mmHg 72%
    15:00 +10°C° 0.2 mm 4 mps 740 mmHg 66%
    16:00 +8°C° 0 mm 4 mps 740 mmHg 68%
    17:00 +8°C° 0 mm 3 mps 739 mmHg 69%
    18:00 +7°C° 0 mm 3 mps 739 mmHg 71%
    19:00 +7°C° 0 mm 3 mps 739 mmHg 72%
    20:00 +7°C° 0 mm 3 mps 739 mmHg 73%
    21:00 +5°C° 0 mm 3 mps 738 mmHg 74%
    22:00 +5°C° 0 mm 3 mps 738 mmHg 74%
    23:00 +5°C° 0 mm 3 mps 737 mmHg 75%

    Tomorrow, 24 October, Wednesday

    Time Temperature Precipitation Wind Pressure Humidity
    00:00 +4°C° 0 mm 4 mps 737 mmHg 75%
    01:00 +4°C° 0 mm 4 mps 736 mmHg 76%
    02:00 +4°C° 0 mm 4 mps 736 mmHg 77%
    03:00 +4°C° 0 mm 4 mps 735 mmHg 77%
    04:00 +3°C° 0 mm 5 mps 734 mmHg 77%
    05:00 +3°C° 0 mm 5 mps 734 mmHg 77%
    06:00 +3°C° 0 mm 5 mps 733 mmHg 77%
    07:00 +4°C° 0 mm 6 mps 733 mmHg 75%
    08:00 +4°C° 0 mm 6 mps 732 mmHg 72%
    09:00 +5°C° 0 mm 7 mps 732 mmHg 70%
    10:00 +5°C° 0.6 mm 7 mps 731 mmHg 72%
    11:00 +5°C° 0.6 mm 8 mps 731 mmHg 74%
    12:00 +5°C° 0.6 mm 8 mps 730 mmHg 76%
    13:00 +6°C° 0.3 mm 8 mps 730 mmHg 75%
    14:00 +7°C° 0.3 mm 8 mps 730 mmHg 75%
    15:00 +9°C° 0.3 mm 8 mps 729 mmHg 75%
    16:00 +8°C° 0.1 mm 7 mps 729 mmHg 79%
    17:00 +8°C° 0.1 mm 6 mps 729 mmHg 83%
    18:00 +8°C° 0.1 mm 5 mps 728 mmHg 87%
    19:00 +8°C° 0.2 mm 5 mps 728 mmHg 88%
    20:00 +8°C° 0.2 mm 5 mps 728 mmHg 89%
    21:00 +8°C° 0.2 mm 5 mps 727 mmHg 91%
    22:00 +8°C° 0 mm 5 mps 727 mmHg 91%
    23:00 +8°C° 0 mm 5 mps 726 mmHg 92%

    Day after tomorrow, 25 October, Thursday

    Time Temperature Precipitation Wind Pressure Humidity
    00:00 +7°C° 0 mm 5 mps 726 mmHg 92%
    01:00 +8°C° 0.5 mm 6 mps 725 mmHg 91%
    02:00 +9°C° 0.5 mm 7 mps 725 mmHg 89%
    03:00 +9°C° 0.5 mm 7 mps 724 mmHg 87%
    04:00 +9°C° 0.2 mm 7 mps 724 mmHg 86%
    05:00 +9°C° 0.2 mm 7 mps 723 mmHg 85%
    06:00 +10°C° 0.2 mm 7 mps 723 mmHg 85%
    07:00 +9°C° 0.2 mm 8 mps 723 mmHg 81%
    08:00 +9°C° 0.2 mm 8 mps 723 mmHg 78%
    09:00 +7°C° 0.2 mm 9 mps 723 mmHg 75%
    10:00 +7°C° 0.2 mm 9 mps 723 mmHg 70%
    11:00 +7°C° 0.2 mm 10 mps 723 mmHg 65%
    12:00 +7°C° 0.2 mm 10 mps 723 mmHg 61%
    13:00 +7°C° 0 mm 10 mps 724 mmHg 61%
    14:00 +6°C° 0 mm 10 mps 724 mmHg 62%
    15:00 +6°C° 0 mm 10 mps 725 mmHg 63%
    16:00 +6°C° 0 mm 10 mps 725 mmHg 65%
    17:00 +5°C° 0 mm 9 mps 726 mmHg 67%
    18:00 +5°C° 0 mm 8 mps 727 mmHg 70%
    19:00 +5°C° 0 mm 7 mps 727 mmHg 71%
    20:00 +4°C° 0 mm 7 mps 728 mmHg 73%
    21:00 +4°C° 0 mm 6 mps 728 mmHg 75%
    22:00 +4°C° 0 mm 6 mps 729 mmHg 78%
    23:00 +3°C° 0 mm 5 mps 729 mmHg 80%

    26 October, Friday

    Time Temperature Precipitation Wind Pressure Humidity
    00:00 +3°C° 0 mm 5 mps 730 mmHg 82%
    01:00 +4°C° 0.1 mm 4 mps 730 mmHg 83%
    02:00 +3°C° 0.1 mm 4 mps 731 mmHg 84%
    03:00 +3°C° 0.1 mm 4 mps 731 mmHg 85%
    04:00 +3°C° 0.1 mm 4 mps 731 mmHg 84%
    05:00 +3°C° 0.1 mm 4 mps 732 mmHg 83%
    06:00 +3°C° 0.1 mm 4 mps 732 mmHg 82%
    07:00 +3°C° 0 mm 4 mps 733 mmHg 79%
    08:00 +2°C° 0 mm 5 mps 733 mmHg 75%
    09:00 +2°C° 0 mm 5 mps 734 mmHg 71%
    10:00 +3°C° 0 mm 6 mps 734 mmHg 65%
    11:00 +3°C° 0 mm 6 mps 735 mmHg 59%
    12:00 +4°C° 0 mm 6 mps 735 mmHg 53%
    13:00 +4°C° 0 mm 6 mps 736 mmHg 53%
    14:00 +4°C° 0 mm 6 mps 736 mmHg 54%
    15:00 +4°C° 0 mm 6 mps 737 mmHg 54%
    16:00 +3°C° 0 mm 5 mps 737 mmHg 60%
    17:00 +3°C° 0 mm 4 mps 738 mmHg 65%
    18:00 +2°C° 0 mm 3 mps 738 mmHg 70%
    19:00 +2°C° 0 mm 3 mps 739 mmHg 72%
    20:00 +2°C° 0 mm 3 mps 739 mmHg 74%
    21:00 +2°C° 0 mm 3 mps 740 mmHg 76%
    22:00 +1°C° 0 mm 4 mps 740 mmHg 76%
    23:00 +1°C° 0 mm 4 mps 740 mmHg 76%

    27 October, Saturday

    Time Temperature Precipitation Wind Pressure Humidity
    00:00 +1°C° 0 mm 4 mps 741 mmHg 75%
    01:00 +1°C° 0 mm 4 mps 741 mmHg 78%
    02:00 +1°C° 0 mm 4 mps 742 mmHg 80%
    03:00 +1°C° 0 mm 4 mps 742 mmHg 82%
    04:00 0°C° 0 mm 4 mps 743 mmHg 85%
    05:00 0°C° 0 mm 4 mps 743 mmHg 88%
    06:00 0°C° 0 mm 4 mps 744 mmHg 91%
    07:00 0°C° 0 mm 4 mps 744 mmHg 87%
    08:00 +1°C° 0 mm 4 mps 745 mmHg 83%
    09:00 +1°C° 0 mm 5 mps 745 mmHg 79%
    10:00 +3°C° 0 mm 5 mps 746 mmHg 73%
    11:00 +5°C° 0 mm 5 mps 746 mmHg 66%
    12:00 +6°C° 0 mm 5 mps 746 mmHg 60%
    13:00 +6°C° 0 mm 5 mps 747 mmHg 60%
    14:00 +6°C° 0 mm 5 mps 747 mmHg 60%
    15:00 +7°C° 0 mm 5 mps 747 mmHg 60%
    16:00 +6°C° 0 mm 4 mps 747 mmHg 63%
    17:00 +6°C° 0 mm 4 mps 747 mmHg 67%
    18:00 +5°C° 0 mm 3 mps 747 mmHg 70%
    19:00 +5°C° 0 mm 3 mps 747 mmHg 71%
    20:00 +5°C° 0 mm 4 mps 748 mmHg 72%
    21:00 +5°C° 0 mm 4 mps 748 mmHg 73%
    22:00 +5°C° 0 mm 4 mps 747 mmHg 73%
    23:00 +5°C° 0 mm 5 mps 747 mmHg 73%

    28 October, Sunday

    Time Temperature Precipitation Wind Pressure Humidity
    00:00 +6°C° 0 mm 5 mps 747 mmHg 73%
    01:00 +6°C° 0 mm 5 mps 747 mmHg 73%
    02:00 +6°C° 0 mm 5 mps 747 mmHg 73%
    03:00 +5°C° 0 mm 6 mps 747 mmHg 73%
    04:00 +5°C° 0.1 mm 6 mps 747 mmHg 75%
    05:00 +5°C° 0.1 mm 6 mps 747 mmHg 77%
    06:00 +6°C° 0.1 mm 7 mps 746 mmHg 79%
    07:00 +6°C° 0.4 mm 7 mps 746 mmHg 80%
    08:00 +8°C° 0.4 mm 7 mps 747 mmHg 81%
    09:00 +7°C° 0.4 mm 8 mps 747 mmHg 82%
    10:00 +10°C° 0 mm 8 mps 747 mmHg 77%
    11:00 +11°C° 0 mm 8 mps 747 mmHg 72%
    12:00 +12°C° 0 mm 9 mps 747 mmHg 67%
    13:00 +13°C° 0 mm 9 mps 746 mmHg 66%
    14:00 +13°C° 0 mm 8 mps 746 mmHg 65%
    15:00 +13°C° 0 mm 8 mps 746 mmHg 63%
    16:00 +13°C° 0 mm 8 mps 746 mmHg 66%
    17:00 +12°C° 0 mm 8 mps 746 mmHg 68%
    18:00 +12°C° 0 mm 8 mps 746 mmHg 70%
    19:00 +12°C° 0 mm 8 mps 746 mmHg 71%
    20:00 +12°C° 0 mm 8 mps 746 mmHg 71%
    21:00 +12°C° 0 mm 8 mps 746 mmHg 72%
    22:00 +12°C° 0 mm 8 mps 746 mmHg 72%
    23:00 +11°C° 0 mm 8 mps 746 mmHg 72%
    Show more